| time (UTC) | temp F | wind direction | speed knots | gust knots | rain 1hr in | rain 24hr in | rain mn in | humidity % | barometer mb |
| 20260902133010 | 74 | 270 | 2.6 | 5.2 | 0.00 | 0.00 | 0.00 | 54 | 1018.7 |
| 20260902132009 | 74 | 225 | 3.5 | 4.3 | 0.00 | 0.00 | 0.00 | 56 | 1018.6 |
| 20260902131034 | 75 | 270 | 4.3 | 8.7 | 0.00 | 0.00 | 0.00 | 55 | 1018.4 |
| 20260902125009 | 75 | 180 | 0.9 | 4.3 | 0.00 | 0.00 | 0.00 | 54 | 1018.7 |
| 20260902124010 | 74 | 180 | 2.6 | 3.5 | 0.00 | 0.00 | 0.00 | 55 | 1018.7 |
| 20260902120021 | 75 | 270 | 3.5 | 5.2 | 0.00 | 0.00 | 0.00 | 55 | 1019.1 |
| 20260902115008 | 75 | 180 | 1.7 | 2.6 | 0.00 | 0.00 | 0.00 | 58 | 1019.1 |
| 20260902114008 | 75 | 270 | 3.5 | 4.3 | 0.00 | 0.00 | 0.00 | 58 | 1019.2 |
| 20260902105009 | 74 | 180 | 1.7 | 6.1 | 0.00 | 0.00 | 0.00 | 61 | 1019.6 |
| 20260902104007 | 74 | 270 | 3.5 | 7.8 | 0.00 | 0.00 | 0.00 | 58 | 1019.8 |
| 20260902103011 | 74 | 270 | 3.5 | 7.0 | 0.00 | 0.00 | 0.00 | 62 | 1019.7 |
| 20260902101008 | 72 | 270 | 0.9 | 2.6 | 0.00 | 0.00 | 0.00 | 61 | 1019.8 |
| 20260902100014 | 73 | 270 | 1.7 | 3.5 | 0.00 | 0.00 | 0.00 | 58 | 1019.8 |
| 20260902095006 | 73 | 180 | 0.9 | 2.6 | 0.00 | 0.00 | 0.00 | 65 | 1020.0 |
| 20260902094008 | 72 | 270 | 1.7 | 3.5 | 0.00 | 0.00 | 0.00 | 63 | 1020.0 |
| 20260902093013 | 72 | 225 | 0.9 | 1.7 | 0.00 | 0.00 | 0.00 | 64 | 1020.1 |
| 20260902092008 | 71 | 180 | 0.9 | 2.6 | 0.00 | 0.00 | 0.00 | 64 | 1020.2 |
| 20260902091008 | 70 | 270 | 1.7 | 4.3 | 0.00 | 0.00 | 0.00 | 66 | 1020.2 |
| 20260902090016 | 69 | 180 | 1.7 | 3.5 | 0.00 | 0.00 | 0.00 | 66 | 1020.3 |
| 20260902085006 | 69 | 225 | 1.7 | 3.5 | 0.00 | 0.00 | 0.00 | 66 | 1020.4 |
| 20260902084008 | 67 | 180 | 0.9 | 2.6 | 0.00 | 0.00 | 0.00 | 69 | 1020.5 |
| 20260902083016 | 67 | 270 | 1.7 | 3.5 | 0.00 | 0.00 | 0.00 | 68 | 1020.6 |
| 20260902082009 | 66 | 225 | 0.9 | 3.5 | 0.00 | 0.00 | 0.00 | 68 | 1020.5 |
| 20260902081009 | 66 | 270 | 2.6 | 4.3 | 0.00 | 0.00 | 0.00 | 70 | 1020.6 |
| 20260902080012 | 65 | 270 | 2.6 | 4.3 | 0.00 | 0.00 | 0.00 | 72 | 1020.6 |
| 20260902074008 | 65 | 270 | 2.6 | 4.3 | 0.00 | 0.00 | 0.00 | 76 | 1020.6 |
| 20260902073012 | 64 | 270 | 3.5 | 4.3 | 0.00 | 0.00 | 0.00 | 76 | 1020.7 |
| 20260902072009 | 64 | 270 | 3.5 | 4.3 | 0.00 | 0.00 | 0.00 | 77 | 1020.7 |
| 20260902071008 | 62 | 270 | 0.9 | 2.6 | 0.00 | 0.00 | 0.00 | 75 | 1020.6 |
| 20260902070010 | 61 | 180 | 0.0 | 1.7 | 0.00 | 0.00 | 0.00 | 77 | 1020.6 |
| 20260902065008 | 60 | 180 | 0.0 | 1.7 | 0.00 | 0.00 | 0.00 | 82 | 1020.7 |
| 20260902064007 | 59 | 90 | 0.9 | 1.7 | 0.00 | 0.00 | 0.00 | 85 | 1020.7 |
| 20260902063010 | 57 | 90 | 0.9 | 1.7 | 0.00 | 0.00 | 0.00 | 88 | 1020.8 |
| 20260902062008 | 55 | 90 | 0.9 | 1.7 | 0.00 | 0.00 | 0.00 | 91 | 1020.8 |
| 20260902061006 | 54 | 45 | 0.0 | 1.7 | 0.00 | 0.00 | 0.00 | 94 | 1020.9 |
| 20260902055006 | 52 | 90 | 0.0 | 0.0 | 0.00 | 0.00 | 0.00 | 97 | 1020.9 |
| 20260902054007 | 51 | 90 | 0.0 | 0.9 | 0.00 | 0.00 | 0.00 | 98 | 1021.0 |
| 20260902053006 | 51 | 180 | 0.0 | 0.0 | 0.00 | 0.00 | 0.00 | 98 | 1020.9 |
| 20260902052007 | 50 | 180 | 0.0 | 0.0 | 0.00 | 0.00 | 0.00 | 98 | 1021.0 |
| 20260902051009 | 50 | 0 | 0.0 | 0.9 | 0.00 | 0.00 | 0.00 | 97 | 1020.7 |
| 20260902050013 | 50 | 45 | 0.0 | 0.0 | 0.00 | 0.00 | 0.00 | 97 | 1020.5 |
| 20260902045005 | 49 | 45 | 0.0 | 1.7 | 0.00 | 0.00 | 0.00 | 97 | 1020.7 |
| 20260902044005 | 49 | 135 | 0.0 | 0.9 | 0.00 | 0.00 | 0.00 | 97 | 1020.6 |
| 20260902043006 | 49 | 135 | 0.0 | 0.9 | 0.00 | 0.00 | 0.00 | 97 | 1020.7 |
| 20260902041008 | 49 | 135 | 0.9 | 1.7 | 0.00 | 0.00 | 0.00 | 97 | 1020.7 |
| 20260902040013 | 49 | 0 | 0.0 | 0.9 | 0.00 | 0.00 | 0.00 | 97 | 1020.6 |
| 20260902035009 | 49 | 0 | 0.0 | 1.7 | 0.00 | 0.00 | 0.00 | 97 | 1020.7 |
| 20260902034007 | 49 | 0 | 0.0 | 0.9 | 0.00 | 0.00 | 0.00 | 97 | 1020.5 |
| 20260902033010 | 49 | 0 | 0.0 | 0.9 | 0.00 | 0.00 | 0.00 | 97 | 1020.6 |
| 20260902032008 | 49 | 0 | 0.0 | 0.9 | 0.00 | 0.00 | 0.00 | 97 | 1020.7 |
| 20260902031007 | 49 | 0 | 0.0 | 1.7 | 0.00 | 0.00 | 0.00 | 97 | 1020.7 |
| 20260902030015 | 49 | 0 | 0.0 | 1.7 | 0.00 | 0.00 | 0.00 | 96 | 1020.6 |
| 20260902025008 | 49 | 0 | 0.0 | 0.9 | 0.00 | 0.00 | 0.00 | 97 | 1020.6 |
| 20260902024006 | 49 | 0 | 0.0 | 0.0 | 0.00 | 0.00 | 0.00 | 96 | 1020.4 |
| 20260902023006 | 49 | 0 | 0.0 | 0.9 | 0.00 | 0.00 | 0.00 | 96 | 1020.4 |
| 20260902022008 | 49 | 0 | 0.0 | 0.9 | 0.00 | 0.00 | 0.00 | 96 | 1020.4 |
| 20260902021008 | 50 | 0 | 0.0 | 0.9 | 0.00 | 0.00 | 0.00 | 96 | 1020.4 |
| 20260902020013 | 50 | 0 | 0.0 | 0.9 | 0.00 | 0.00 | 0.00 | 96 | 1020.3 |
| 20260902015008 | 50 | 0 | 0.0 | 0.9 | 0.00 | 0.00 | 0.00 | 96 | 1020.3 |
| 20260902014008 | 50 | 0 | 0.0 | 0.0 | 0.00 | 0.00 | 0.00 | 96 | 1020.2 |
| 20260902013010 | 50 | 0 | 0.0 | 0.0 | 0.00 | 0.00 | 0.00 | 96 | 1020.3 |
| 20260902012009 | 51 | 0 | 0.0 | 0.9 | 0.00 | 0.00 | 0.00 | 96 | 1020.2 |
| 20260902011006 | 51 | 0 | 0.9 | 1.7 | 0.00 | 0.00 | 0.00 | 96 | 1020.1 |
| 20260902010010 | 51 | 0 | 0.0 | 0.0 | 0.00 | 0.00 | 0.00 | 95 | 1020.2 |
| 20260902005008 | 51 | 0 | 0.0 | 0.0 | 0.00 | 0.00 | 0.00 | 95 | 1020.3 |
| 20260902004010 | 51 | 0 | 0.0 | 0.0 | 0.00 | 0.00 | 0.00 | 95 | 1020.2 |
| 20260902003008 | 52 | 0 | 0.0 | 1.7 | 0.00 | 0.00 | 0.00 | 95 | 1020.1 |
| 20260902002006 | 52 | 0 | 0.0 | 1.7 | 0.00 | 0.00 | 0.00 | 95 | 1020.2 |
| 20260902001006 | 52 | 0 | 0.0 | 1.7 | 0.00 | 0.00 | 0.00 | 95 | 1020.3 |
| 20260901235008 | 52 | 0 | 0.0 | 1.7 | 0.00 | 0.00 | 0.00 | 95 | 1020.2 |
| 20260901234006 | 52 | 0 | 0.0 | 0.9 | 0.00 | 0.00 | 0.00 | 95 | 1020.4 |
| 20260901233008 | 52 | 0 | 0.0 | 0.9 | 0.00 | 0.00 | 0.00 | 95 | 1020.4 |
| 20260901232005 | 52 | 0 | 0.0 | 0.0 | 0.00 | 0.00 | 0.00 | 95 | 1020.4 |
| 20260901231006 | 53 | 0 | 0.0 | 0.0 | 0.00 | 0.00 | 0.00 | 95 | 1020.3 |
| 20260901230014 | 53 | 0 | 0.0 | 0.0 | 0.00 | 0.00 | 0.00 | 95 | 1020.3 |
| 20260901225005 | 53 | 0 | 0.0 | 0.0 | 0.00 | 0.00 | 0.00 | 94 | 1020.3 |
| 20260901224005 | 53 | 0 | 0.0 | 0.9 | 0.00 | 0.00 | 0.00 | 94 | 1020.3 |
| 20260901223014 | 54 | 0 | 0.0 | 0.9 | 0.00 | 0.00 | 0.00 | 94 | 1020.3 |
| 20260901222006 | 54 | 0 | 0.0 | 0.9 | 0.00 | 0.00 | 0.00 | 94 | 1020.3 |
| 20260901221007 | 54 | 0 | 0.0 | 0.0 | 0.00 | 0.00 | 0.00 | 93 | 1020.4 |
| 20260901220017 | 54 | 0 | 0.0 | 0.0 | 0.00 | 0.00 | 0.00 | 93 | 1020.3 |
| 20260901215005 | 55 | 0 | 0.0 | 1.7 | 0.00 | 0.00 | 0.00 | 93 | 1020.3 |
| 20260901214007 | 54 | 0 | 0.0 | 0.0 | 0.00 | 0.00 | 0.00 | 94 | 1020.4 |
| 20260901213007 | 54 | 0 | 0.0 | 0.0 | 0.00 | 0.00 | 0.00 | 94 | 1020.2 |
| 20260901212006 | 54 | 0 | 0.0 | 0.9 | 0.00 | 0.00 | 0.00 | 93 | 1020.1 |
| 20260901211005 | 54 | 0 | 0.0 | 0.0 | 0.00 | 0.00 | 0.00 | 93 | 1020.2 |
| 20260901205006 | 54 | 45 | 0.0 | 0.9 | 0.00 | 0.00 | 0.00 | 92 | 1020.2 |
| 20260901204006 | 55 | 45 | 0.0 | 0.9 | 0.00 | 0.00 | 0.00 | 92 | 1020.0 |
| 20260901202010 | 55 | 45 | 0.0 | 0.0 | 0.00 | 0.00 | 0.00 | 91 | 1019.9 |
| 20260901201007 | 56 | 45 | 0.0 | 0.9 | 0.00 | 0.00 | 0.00 | 90 | 1020.0 |
| 20260901200011 | 56 | 45 | 0.0 | 0.0 | 0.00 | 0.00 | 0.00 | 89 | 1020.0 |
| 20260901195006 | 57 | 45 | 0.0 | 0.9 | 0.00 | 0.00 | 0.00 | 87 | 1019.8 |
| 20260901193007 | 57 | 90 | 0.0 | 0.9 | 0.00 | 0.00 | 0.00 | 87 | 1019.9 |
| 20260901192006 | 57 | 90 | 0.0 | 0.9 | 0.00 | 0.00 | 0.00 | 87 | 1019.9 |
| 20260901191007 | 58 | 90 | 0.0 | 0.0 | 0.00 | 0.00 | 0.00 | 87 | 1019.7 |
| 20260901190013 | 58 | 90 | 0.0 | 0.0 | 0.00 | 0.00 | 0.00 | 86 | 1019.7 |
| 20260901185010 | 59 | 90 | 0.0 | 0.9 | 0.00 | 0.00 | 0.00 | 84 | 1019.7 |
| 20260901184008 | 60 | 90 | 0.0 | 0.0 | 0.00 | 0.00 | 0.00 | 82 | 1019.4 |
| 20260901183007 | 60 | 90 | 0.0 | 0.9 | 0.00 | 0.00 | 0.00 | 82 | 1019.4 |
| 20260901182012 | 61 | 90 | 0.0 | 0.9 | 0.00 | 0.00 | 0.00 | 82 | 1019.3 |
| 20260901181037 | 62 | 45 | 0.0 | 0.0 | 0.00 | 0.00 | 0.00 | 80 | 1019.2 |
| 20260901180011 | 63 | 45 | 0.0 | 0.9 | 0.00 | 0.00 | 0.00 | 79 | 1019.0 |
| 20260901175007 | 64 | 45 | 0.9 | 1.7 | 0.00 | 0.00 | 0.00 | 76 | 1019.0 |
| 20260901173009 | 66 | 0 | 0.0 | 1.7 | 0.00 | 0.00 | 0.00 | 73 | 1018.7 |
| 20260901172009 | 67 | 135 | 0.0 | 0.9 | 0.00 | 0.00 | 0.00 | 68 | 1018.6 |
| 20260901170012 | 69 | 225 | 1.7 | 2.6 | 0.00 | 0.00 | 0.00 | 64 | 1018.4 |
| 20260901165006 | 69 | 135 | 2.6 | 3.5 | 0.00 | 0.00 | 0.00 | 62 | 1018.4 |
| 20260901164008 | 70 | 270 | 2.6 | 3.5 | 0.00 | 0.00 | 0.00 | 61 | 1018.4 |
| 20260901162007 | 71 | 45 | 3.5 | 5.2 | 0.00 | 0.00 | 0.00 | 58 | 1018.4 |
| 20260901161009 | 72 | 270 | 3.5 | 4.3 | 0.00 | 0.00 | 0.00 | 57 | 1018.2 |
| 20260901160014 | 73 | 135 | 3.5 | 6.1 | 0.00 | 0.00 | 0.00 | 55 | 1018.2 |
| 20260901155005 | 73 | 135 | 3.5 | 5.2 | 0.00 | 0.00 | 0.00 | 55 | 1018.3 |
| 20260901154007 | 73 | 270 | 5.2 | 7.8 | 0.00 | 0.00 | 0.00 | 55 | 1018.3 |
| 20260901153012 | 73 | 270 | 3.5 | 7.0 | 0.00 | 0.00 | 0.00 | 56 | 1018.4 |
| 20260901152005 | 73 | 270 | 3.5 | 5.2 | 0.00 | 0.00 | 0.00 | 55 | 1018.5 |
| 20260901151011 | 74 | 270 | 4.3 | 6.1 | 0.00 | 0.00 | 0.00 | 55 | 1018.4 |
| 20260901150011 | 73 | 270 | 5.2 | 8.7 | 0.00 | 0.00 | 0.00 | 53 | 1018.5 |
| 20260901145009 | 74 | 315 | 4.3 | 9.6 | 0.00 | 0.00 | 0.00 | 57 | 1018.6 |
| 20260901144009 | 74 | 270 | 7.8 | 10.4 | 0.00 | 0.00 | 0.00 | 56 | 1018.5 |
| 20260901143009 | 73 | 135 | 3.5 | 8.7 | 0.00 | 0.00 | 0.00 | 55 | 1018.6 |
| 20260901142006 | 73 | 135 | 4.3 | 7.8 | 0.00 | 0.00 | 0.00 | 56 | 1018.5 |
| 20260901141008 | 73 | 270 | 7.0 | 10.4 | 0.00 | 0.00 | 0.00 | 56 | 1018.6 |
| 20260901140012 | 74 | 270 | 7.8 | 11.3 | 0.00 | 0.00 | 0.00 | 56 | 1018.7 |
| 20260901135006 | 73 | 135 | 4.3 | 9.6 | 0.00 | 0.00 | 0.00 | 56 | 1018.6 |
| 20260901134009 | 75 | 270 | 8.7 | 11.3 | 0.00 | 0.00 | 0.00 | 58 | 1018.5 |